[[{"header":{"parameterUnit":"m.s-1","parameterCategory":1,"la1":30.2991,"la2":30.254,"lo1":-89.0895,"lo2":-89.0444,"dy":0.0017,"dx":0.0017,"nx":28,"ny":28,"refTime":"2025-04-24T09:00:00:Z","depth":0,"parameterNumber":2,"parameterNumberName":"U-component_of_WINDS"},"data":[0,0,0,0,0,0,0,0,0,0,0,0,0,0,0,0,0,0,0,0,0,0,0,0,0,0,0,0,0,0,0,0,0,0,0,0,0,0,0,0,0,0,0,0,0,0,0,0,0,0,0,0,0,0,0,0,0,0,-1.3466,-1.3467,0,-1.3494,-1.3494,-1.3494,-1.3479,-1.3478,-1.3477,-1.3477,-1.3507,-1.3508,-1.3509,0,0,0,0,0,0,0,0,0,0,0,0,0,-1.3403,-1.3405,-1.3466,-1.3467,-1.3467,-1.3494,-1.3494,-1.3494,-1.3479,-1.3478,-1.3477,-1.3476,-1.3506,-1.3508,-1.351,0,0,0,0,0,0,0,0,0,0,0,0,0,-1.3431,-1.3405,-1.3466,-1.3463,-1.3463,-1.3494,-1.3494,-1.3494,-1.3479,-1.3478,-1.3477,-1.3476,-1.3505,-1.3508,-1.351,-1.3547,0,0,-1.3517,-1.3518,0,0,0,0,0,0,0,0,-1.3429,-1.3433,-1.3463,-1.3463,-1.3463,-1.3482,-1.3483,-1.3512,-1.348,-1.3473,-1.3477,-1.3475,-1.3499,-1.3502,-1.351,-1.3548,-1.3549,-1.3517,-1.3518,-1.3519,-1.352,0,0,0,0,0,0,0,-1.3427,-1.3432,-1.3477,-1.3463,-1.3463,-1.346,-1.3463,-1.3488,-1.3492,-1.3473,-1.3472,-1.3476,-1.3499,-1.3508,-1.351,-1.355,-1.3517,-1.3519,-1.352,-1.3521,-1.362,-1.3621,0,0,0,0,0,0,-1.3425,-1.343,-1.3476,-1.3478,-1.3443,-1.3462,-1.3465,-1.3477,-1.3492,-1.3493,-1.3477,-1.3475,-1.3504,-1.3508,-1.3511,-1.3554,-1.3519,-1.3521,-1.3523,-1.3618,-1.362,-1.3621,0,0,0,0,0,0,-1.3424,-1.343,-1.3475,-1.3454,-1.346,-1.3465,-1.3478,-1.3478,-1.3486,-1.3494,-1.3495,-1.3484,-1.3503,-1.3508,-1.3538,-1.3555,-1.3522,-1.3525,-1.3617,-1.3619,-1.362,-1.3642,0,0,0,0,0,0,-1.3422,-1.3429,-1.3443,-1.3454,-1.3461,-1.3501,-1.3479,-1.3479,-1.349,-1.3488,-1.3502,-1.3503,-1.3503,-1.3534,-1.354,-1.3558,-1.3526,-1.3615,-1.3618,-1.362,-1.364,-1.3644,-1.3648,0,0,0,0,0,-1.342,-1.3448,-1.3444,-1.3449,-1.3478,-1.3502,-1.3505,-1.3504,-1.3492,-1.3505,-1.3511,-1.3503,-1.3553,-1.3538,-1.3544,-1.3563,-1.3614,-1.3617,-1.362,-1.3638,-1.3643,-1.3648,0,0,0,0,0,0,-1.344,-1.345,-1.3445,-1.3477,-1.3489,-1.3499,-1.3516,-1.351,-1.3526,-1.3524,-1.3522,-1.3526,-1.3556,-1.3563,-1.3545,-1.3599,-1.3582,-1.3586,-1.3593,-1.3599,-1.3603,-1.36,-1.3528,0,0,0,0,0,-1.3447,-1.3465,-1.3474,-1.3502,-1.3508,-1.3511,-1.3522,-1.352,-1.3532,-1.3537,-1.3544,-1.3557,-1.3575,-1.3588,-1.3605,-1.3641,-1.3644,-1.3657,-1.3661,-1.3665,-1.3668,-1.3687,-1.3693,-1.363,-1.363,-1.363,0,0,-1.3464,-1.3472,-1.3484,-1.3506,-1.3514,-1.3534,-1.3515,-1.3537,-1.3551,-1.354,-1.3568,-1.3574,-1.3588,-1.3621,-1.3636,-1.3627,-1.3686,-1.3669,-1.3671,-1.3673,-1.369,-1.3696,-1.3701,-1.3632,-1.3632,-1.3632,0,0,-1.3504,-1.3512,-1.3536,-1.3545,-1.3558,-1.356,-1.3566,-1.3577,-1.358,-1.3608,-1.3601,-1.3618,-1.3651,-1.366,-1.367,-1.3714,-1.3707,-1.372,-1.3742,-1.376,-1.3765,-1.3769,-1.3784,-1.3789,-1.3724,-1.3724,-1.3724,0,-1.3523,-1.3551,-1.3549,-1.357,-1.358,-1.3571,-1.3595,-1.3604,-1.3623,-1.363,-1.3621,-1.3661,-1.367,-1.3704,-1.3715,-1.3723,-1.3729,-1.3718,-1.3764,-1.3769,-1.3773,-1.3787,-1.3792,-1.3725,-1.3725,-1.3725,-1.3725,0,-1.3573,-1.3593,-1.361,-1.3627,-1.3639,-1.3662,-1.3664,-1.3677,-1.3675,-1.3678,-1.3707,-1.3717,-1.3736,-1.3745,-1.3743,-1.3779,-1.3773,-1.3764,-1.3746,-1.378,-1.3793,-1.3798,-1.3727,-1.3726,-1.3726,-1.3726,0,0,-1.3624,-1.364,-1.3646,-1.3654,-1.3668,-1.3683,-1.3706,-1.3724,-1.3734,-1.3748,-1.3767,-1.3795,-1.3786,-1.3797,-1.3796,-1.3812,-1.3845,-1.3801,-1.3802,-1.3808,-1.3885,-1.389,-1.3896,-1.3842,-1.3843,-1.3843,-1.3883,0,-1.3664,-1.3702,-1.3701,-1.3737,-1.3755,-1.3747,-1.3767,-1.3778,-1.3782,-1.3798,-1.3803,-1.3822,-1.381,-1.3816,-1.3832,-1.3838,-1.386,-1.3835,-1.3859,-1.3859,-1.3853,-1.3903,-1.3909,-1.3946,-1.3888,-1.3889,-1.389,0,-1.3715,-1.3729,-1.3766,-1.3776,-1.3784,-1.3802,-1.3818,-1.3834,-1.3846,-1.3848,-1.386,-1.3857,-1.3881,-1.3864,-1.3896,-1.3879,-1.3888,-1.3893,-1.3894,-1.3895,-1.3875,-1.3904,-1.3958,-1.3963,-1.3898,-1.3897,-1.3897,0,-1.3747,-1.3775,-1.3801,-1.3807,-1.3821,-1.3834,-1.384,-1.3852,-1.3862,-1.3877,-1.3884,-1.3902,-1.3912,-1.3926,-1.3928,-1.3915,-1.396,-1.3943,-1.3962,-1.3962,-1.397,-1.3969,-1.4025,-1.3979,-1.3979,-1.3979,-1.3979,0,-1.379,-1.3813,-1.3815,-1.3831,-1.3856,-1.3856,-1.3881,-1.3887,-1.3897,-1.3914,-1.3909,-1.3925,-1.3928,-1.3945,-1.3947,-1.3973,-1.3977,-1.398,-1.3979,-1.3979,-1.3978,-1.3984,-1.3981,-1.3981,-1.398,-1.398,-1.398,0,-1.3829,-1.3832,-1.3859,-1.387,-1.3873,-1.3891,-1.39,-1.3916,-1.3919,-1.3941,-1.3946,-1.3952,-1.3972,-1.3976,-1.4,-1.4001,-1.4031,-1.403,-1.4026,-1.4026,-1.4044,-1.4041,-1.4103,-1.4111,-1.4062,-1.4062,-1.4063,0,-1.3856,-1.3873,-1.3885,-1.3895,-1.3902,-1.392,-1.393,-1.3931,-1.3943,-1.3958,-1.3972,-1.3991,-1.4006,-1.4038,-1.4045,-1.4063,-1.4061,-1.4081,-1.4063,-1.4062,-1.4059,-1.4058,-1.4059,-1.4084,-1.4085,-1.4085,-1.4085,0,-1.3902,-1.3902,-1.3917,-1.3933,-1.3946,-1.3959,-1.3971,-1.398,-1.3982,-1.3996,-1.4015,-1.4027,-1.4051,-1.407,-1.4088,-1.4095,-1.4091,-1.4091,-1.4096,-1.4095,-1.4092,-1.4092,-1.4034,-1.4089,-1.4089,-1.4089,-1.4088,-1.4088,-1.3935,-1.3949,-1.396,-1.3977,-1.3986,-1.3997,-1.4012,-1.4017,-1.4033,-1.4051,-1.4052,-1.4073,-1.4086,-1.4109,-1.4118,-1.4135,-1.4128,-1.4136,-1.4138,-1.4139,-1.414,-1.4091,-1.4138,-1.4138,-1.4138,-1.4138,-1.4138,0,-1.398,-1.3986,-1.4002,-1.4018,-1.4032,-1.4026,-1.4039,-1.4051,-1.4069,-1.4081,-1.4096,-1.4118,-1.4137,-1.4145,-1.4164,-1.4176,-1.4174,-1.418,-1.4179,-1.418,-1.4145,-1.4138,-1.4181,-1.4181,-1.4181,-1.4181,-1.4181,-1.4181,-1.4005,-1.4028,-1.403,-1.4058,-1.4065,-1.4085,-1.4093,-1.4103,-1.4112,-1.4137,-1.4152,-1.4158,-1.4168,-1.4187,-1.4204,-1.4206,-1.4212,-1.4219,-1.422,-1.4187,-1.4183,-1.4179,-1.4172,-1.4221,-1.4221,-1.4254,-1.4254,-1.4254]},{"header":{"parameterUnit":"m.s-1","parameterCategory":1,"la1":30.2991,"la2":30.254,"lo1":-89.0895,"lo2":-89.0444,"dy":0.0017,"dx":0.0017,"nx":28,"ny":28,"refTime":"2025-04-24T09:00:00:Z","depth":0,"parameterNumber":3,"parameterNumberName":"V-component_of_WINDS"},"data":[0,0,0,0,0,0,0,0,0,0,0,0,0,0,0,0,0,0,0,0,0,0,0,0,0,0,0,0,0,0,0,0,0,0,0,0,0,0,0,0,0,0,0,0,0,0,0,0,0,0,0,0,0,0,0,0,0,0,3.3249,3.3249,0,3.3201,3.3201,3.32,3.3212,3.3213,3.3214,3.3215,3.3158,3.3156,3.3154,0,0,0,0,0,0,0,0,0,0,0,0,0,3.3347,3.3346,3.325,3.3249,3.3248,3.3201,3.3201,3.32,3.3212,3.3213,3.3214,3.3215,3.3159,3.3156,3.3154,0,0,0,0,0,0,0,0,0,0,0,0,0,3.3302,3.3345,3.325,3.3249,3.3248,3.3202,3.3201,3.32,3.3211,3.3213,3.3214,3.3216,3.316,3.3157,3.3153,3.3103,0,0,3.3142,3.3141,0,0,0,0,0,0,0,0,3.3305,3.3299,3.3249,3.3249,3.3248,3.3214,3.3215,3.3167,3.3211,3.3225,3.3215,3.3216,3.3175,3.3171,3.3158,3.31,3.3097,3.3142,3.314,3.3138,3.3137,0,0,0,0,0,0,0,3.3308,3.3301,3.323,3.3249,3.3248,3.3249,3.3244,3.3206,3.3193,3.3224,3.3225,3.3219,3.3175,3.3162,3.3157,3.3097,3.3142,3.3139,3.3137,3.3135,3.2997,3.2996,0,0,0,0,0,0,3.3313,3.3303,3.3232,3.3229,3.3281,3.3246,3.3241,3.3223,3.3193,3.319,3.3218,3.322,3.3167,3.3161,3.3155,3.3096,3.3138,3.3135,3.3133,3.2999,3.2997,3.2995,0,0,0,0,0,0,3.3315,3.3306,3.3234,3.3266,3.3257,3.3243,3.3223,3.3222,3.3208,3.3189,3.3186,3.3207,3.3168,3.316,3.3117,3.3094,3.3133,3.313,3.3,3.2998,3.2996,3.2975,0,0,0,0,0,0,3.3317,3.3307,3.3288,3.3266,3.3256,3.3197,3.3222,3.322,3.3203,3.3205,3.3178,3.3174,3.3168,3.3122,3.3113,3.3089,3.3127,3.3002,3.2999,3.2997,3.2978,3.2972,3.2968,0,0,0,0,0,3.3321,3.3282,3.3287,3.3278,3.3232,3.3196,3.319,3.3186,3.3201,3.3182,3.317,3.3175,3.3098,3.3117,3.3107,3.3082,3.3004,3.3,3.2997,3.298,3.2973,3.2968,0,0,0,0,0,0,3.3298,3.3279,3.3284,3.3237,3.3219,3.3198,3.3173,3.3179,3.3153,3.3156,3.315,3.3144,3.31,3.3087,3.3109,3.3033,3.3053,3.3047,3.3043,3.3037,3.3032,3.3036,3.3124,0,0,0,0,0,3.3289,3.3262,3.3246,3.3206,3.3197,3.3187,3.3171,3.317,3.3149,3.314,3.3125,3.3103,3.3074,3.3055,3.3027,3.2976,3.2971,3.2955,3.295,3.2946,3.294,3.2915,3.2908,3.2984,3.2984,3.2984,0,0,3.3266,3.3253,3.3236,3.3201,3.3187,3.3159,3.318,3.3148,3.3127,3.3135,3.3094,3.3082,3.3057,3.3011,3.299,3.2999,3.2919,3.2941,3.2938,3.2935,3.2911,3.2903,3.2897,3.2982,3.2982,3.2982,0,0,3.3212,3.3199,3.3166,3.3152,3.3131,3.3125,3.3118,3.3097,3.309,3.305,3.3056,3.303,3.298,3.2963,3.2948,3.2892,3.2896,3.2883,3.2856,3.2831,3.2825,3.282,3.2801,3.2794,3.2878,3.2878,3.2878,0,3.3187,3.3147,3.3147,3.3117,3.3102,3.3111,3.3077,3.3063,3.3032,3.3021,3.3033,3.2973,3.2956,3.2907,3.2894,3.2881,3.2872,3.2885,3.2826,3.2821,3.2816,3.2798,3.2791,3.2876,3.2876,3.2877,3.2877,0,3.3118,3.309,3.3065,3.304,3.3022,3.299,3.2985,3.2966,3.2968,3.2961,3.2921,3.2902,3.2872,3.2861,3.286,3.2812,3.2818,3.2828,3.2848,3.2807,3.279,3.2783,3.2874,3.2875,3.2875,3.2876,0,0,3.3045,3.3024,3.3015,3.3004,3.2984,3.2961,3.293,3.2904,3.2889,3.2868,3.2842,3.2801,3.2812,3.2794,3.2792,3.2771,3.273,3.2783,3.2783,3.2774,3.2677,3.267,3.2662,3.2733,3.2732,3.2731,3.2679,0,3.299,3.2937,3.2938,3.2889,3.2864,3.2874,3.2847,3.2831,3.2824,3.2801,3.2793,3.2765,3.278,3.277,3.2749,3.2739,3.271,3.2743,3.2708,3.2706,3.2714,3.2652,3.2644,3.2596,3.2672,3.2671,3.267,0,3.2918,3.2899,3.2848,3.2834,3.2824,3.2799,3.2777,3.2755,3.2737,3.2734,3.2717,3.272,3.2688,3.271,3.2666,3.2688,3.2674,3.2667,3.2665,3.2661,3.2685,3.2647,3.2581,3.2574,3.266,3.266,3.2661,0,3.2871,3.2833,3.2798,3.2789,3.2771,3.2755,3.2746,3.273,3.2715,3.2695,3.2686,3.2661,3.2647,3.2628,3.2623,3.264,3.258,3.2601,3.2576,3.2576,3.2562,3.2562,3.2492,3.2553,3.2553,3.2553,3.2553,0,3.2809,3.2778,3.2778,3.2756,3.2722,3.2724,3.2689,3.2682,3.2668,3.2645,3.2652,3.2629,3.2626,3.2603,3.2599,3.2564,3.2557,3.2554,3.2553,3.2553,3.2553,3.2543,3.2546,3.2551,3.2551,3.2552,3.2552,0,3.275,3.2749,3.2713,3.2701,3.2697,3.2672,3.2661,3.2641,3.2637,3.2607,3.2601,3.2593,3.2567,3.2562,3.2529,3.2527,3.2485,3.2488,3.2492,3.2492,3.2468,3.2471,3.2388,3.2378,3.2445,3.2445,3.2444,0,3.2711,3.2688,3.2675,3.2661,3.2653,3.263,3.2617,3.2618,3.2603,3.2584,3.2565,3.2541,3.252,3.2478,3.2468,3.2444,3.2446,3.242,3.2442,3.2444,3.2447,3.2448,3.2447,3.2415,3.2414,3.2413,3.2413,0,3.2641,3.2643,3.2624,3.2605,3.2589,3.2574,3.2559,3.2547,3.2547,3.2529,3.2505,3.2489,3.2459,3.2434,3.2411,3.2401,3.2407,3.2406,3.2399,3.2399,3.2403,3.2401,3.248,3.2408,3.2408,3.2408,3.2409,3.2409,3.2591,3.2572,3.2561,3.254,3.253,3.2517,3.2499,3.2494,3.2474,3.2451,3.2453,3.2425,3.2411,3.2381,3.237,3.2348,3.2356,3.2346,3.2343,3.2341,3.2339,3.2407,3.2344,3.2344,3.2344,3.2344,3.2344,0,3.2522,3.2517,3.2498,3.2479,3.2463,3.2474,3.2459,3.2444,3.2421,3.2408,3.239,3.2362,3.2339,3.233,3.2307,3.2292,3.2294,3.2286,3.2287,3.2285,3.2332,3.2341,3.2285,3.2285,3.2285,3.2285,3.2285,3.2285,3.2484,3.2453,3.2454,3.2419,3.2413,3.2389,3.238,3.2368,3.2358,3.2328,3.231,3.2306,3.2294,3.2272,3.2251,3.2249,3.2241,3.2231,3.223,3.2275,3.2281,3.2287,3.2295,3.2229,3.2229,3.2185,3.2184,3.2184]}]]